TimeHST,TemperatureF,Dew PointF,Humidity,Sea Level PressureIn,VisibilityMPH,Wind Direction,Wind SpeedMPH,Gust SpeedMPH,PrecipitationIn,Events,Conditions,WindDirDegrees,DateUTC
12:54 AM,69.1,61.0,75,30.15,10.0,NE,9.2,-,N/A,,Partly Cloudy,50,2011-12-24 10:54:00
1:54 AM,68.0,61.0,78,30.14,10.0,NE,9.2,-,N/A,,Partly Cloudy,40,2011-12-24 11:54:00
2:54 AM,68.0,61.0,78,30.13,10.0,ENE,9.2,-,N/A,,Mostly Cloudy,70,2011-12-24 12:54:00
3:54 AM,68.0,61.0,78,30.12,10.0,NE,11.5,-,N/A,,Clear,50,2011-12-24 13:54:00
4:54 AM,68.0,60.1,76,30.12,10.0,NE,9.2,-,N/A,,Partly Cloudy,50,2011-12-24 14:54:00
5:54 AM,68.0,61.0,78,30.12,10.0,NE,5.8,-,N/A,Rain,Light Rain,50,2011-12-24 15:54:00
6:54 AM,68.0,60.1,76,30.13,10.0,NE,8.1,-,N/A,,Partly Cloudy,40,2011-12-24 16:54:00
7:54 AM,70.0,61.0,73,30.15,10.0,NE,6.9,-,N/A,,Scattered Clouds,50,2011-12-24 17:54:00
8:54 AM,73.0,61.0,66,30.17,10.0,NE,13.8,-,N/A,,Scattered Clouds,50,2011-12-24 18:54:00
9:54 AM,72.0,62.1,71,30.18,10.0,ENE,16.1,23.0,N/A,,Scattered Clouds,60,2011-12-24 19:54:00
10:54 AM,75.9,60.1,58,30.18,10.0,ENE,16.1,23.0,N/A,,Partly Cloudy,60,2011-12-24 20:54:00
11:54 AM,73.9,60.1,62,30.17,10.0,ENE,12.7,21.9,N/A,Rain,Light Rain,60,2011-12-24 21:54:00
12:54 PM,77.0,64.0,64,30.13,10.0,NE,26.5,32.2,N/A,,Scattered Clouds,40,2011-12-24 22:54:00
1:54 PM,73.9,64.9,73,30.11,10.0,NE,21.9,28.8,N/A,,Scattered Clouds,50,2011-12-24 23:54:00
2:54 PM,73.0,64.0,73,30.11,10.0,ENE,12.7,29.9,N/A,Rain,Light Rain,60,2011-12-25 00:54:00
3:54 PM,73.9,63.0,68,30.11,10.0,NE,19.6,31.1,N/A,Rain,Light Rain,50,2011-12-25 01:54:00
4:54 PM,71.1,63.0,75,30.13,10.0,ENE,12.7,26.5,N/A,,Partly Cloudy,60,2011-12-25 02:54:00
5:54 PM,70.0,63.0,78,30.15,10.0,ENE,18.4,26.5,N/A,Rain,Light Rain,60,2011-12-25 03:54:00
6:54 PM,70.0,63.0,78,30.18,8.0,ENE,15.0,24.2,N/A,Rain,Rain,60,2011-12-25 04:54:00
7:54 PM,71.1,63.0,75,30.19,10.0,NE,12.7,23.0,N/A,,Overcast,50,2011-12-25 05:54:00
8:54 PM,72.0,63.0,73,30.20,10.0,NE,15.0,20.7,N/A,,Scattered Clouds,50,2011-12-25 06:54:00
9:54 PM,72.0,62.1,71,30.21,10.0,ENE,6.9,-,N/A,,Scattered Clouds,70,2011-12-25 07:54:00
10:54 PM,71.1,62.1,73,30.22,10.0,NE,11.5,18.4,N/A,,Partly Cloudy,50,2011-12-25 08:54:00
11:54 PM,71.1,62.1,73,30.20,10.0,NE,11.5,-,N/A,,Partly Cloudy,50,2011-12-25 09:54:00